Dewpoint
63 66 68 69 69 70 70 69 70 70 69 68 68 68 68 67 68 68 68 68 67 67 66 65 65 66 66 65 65 65 65 66 67 67 67 67 66 67 67 68 67 68 69
62 64 65 67 68 69 70 67 69 70 69 68 68 67 67 67 67 67 66 67 67 64 62 65 66 65 65 66 65 65 65 65 66 66 66 67 66 66 67 66 66 68 68
59 62 63 65 67 68 69 69 68 69 69 69 68 67 67 67 67 66 66 66 63 63 63 65 66 66 65 65 64 63 64 62 64 66 66 65 65 66 66 64 65 68 68
61 63 64 65 66 67 67 67 67 67 67 68 68 68 68 67 66 66 64 62 61 62 65 66 65 64 65 65 64 64 63 64 64 65 66 66 64 64 65 64 66 67 65
62 64 63 62 65 67 66 66 66 66 66 67 68 68 67 67 66 65 64 64 64 64 64 64 65 66 65 62 58 57 59 62 64 65 65 64 63 63 64 64 66 66 65
62 63 63 61 63 66 66 66 66 66 66 66 68 68 67 66 65 63 61 62 64 66 67 65 65 65 62 58 59 59 58 61 65 65 64 64 63 63 64 65 64 66 66
62 63 63 62 63 63 65 66 65 65 66 66 66 66 67 67 66 66 65 64 65 65 64 64 65 65 64 60 58 59 59 61 62 65 64 63 61 64 65 65 64 65 65
61 63 64 63 62 62 62 63 64 64 65 65 66 66 66 66 66 66 66 66 65 63 60 60 60 61 59 63 63 62 62 63 64 65 63 62 60 61 64 65 64 64 64
63 63 64 64 64 62 61 61 61 63 64 65 65 66 65 64 64 64 64 64 64 65 65 64 61 61 63 62 63 63 63 63 63 62 61 60 59 62 64 64 65 66 65
63 63 63 63 63 62 61 61 61 61 63 64 64 64 63 63 63 62 63 63 63 62 61 63 63 63 62 62 62 62 62 62 60 60 60 59 60 62 64 62 64 65 66
61 62 63 63 62 60 58 59 61 61 61 63 63 64 62 62 61 60 61 61 60 59 58 57 57 58 56 57 58 60 60 60 58 56 56 58 59 63 62 62 62 63 65
53 54 56 58 60 61 59 59 60 61 61 61 62 63 63 62 60 60 59 59 59 58 57 57 56 55 53 53 54 56 58 57 56 57 57 58 60 60 60 62 62 62 64
47 52 55 56 59 58 59 59 61 61 61 61 61 60 61 60 60 59 59 60 58 58 57 56 55 54 53 53 53 53 54 54 55 56 56 57 59 60 61 62 62 62 64
45 49 54 56 57 55 59 61 60 59 60 59 59 58 58 58 58 58 58 58 57 56 56 56 55 55 53 51 52 53 54 54 55 55 56 56 57 58 59 59 61 62 62
43 48 52 55 56 54 53 52 52 53 54 53 53 53 56 57 56 57 56 53 54 55 55 55 56 55 54 54 55 55 55 55 55 55 56 56 57 58 58 59 59 60 61
41 46 51 52 53 54 52 51 48 48 47 49 51 51 53 55 55 55 54 54 53 53 52 51 51 50 50 52 53 55 57 57 57 57 56 57 57 57 57 57 58 59 59
39 43 47 49 50 49 51 50 48 45 44 47 49 49 50 51 48 52 51 51 50 51 51 48 46 43 41 41 38 41 50 52 47 48 53 57 58 58 58 58 59 59 59
36 42 44 46 48 48 50 48 47 45 44 45 47 47 46 47 47 45 45 44 42 46 45 36 36 34 35 35 35 36 39 38 37 39 41 47 55 58 59 59 59 59 59
36 40 39 41 46 44 46 45 42 42 39 42 47 47 45 44 43 41 45 42 38 40 38 35 35 35 34 34 34 35 35 33 35 37 36 42 50 52 54 57 58 59 59
36 37 36 32 39 39 38 38 38 39 38 40 45 46 45 43 41 38 41 41 38 38 37 37 35 37 36 34 35 33 34 33 34 34 34 39 41 46 41 53 55 58 58
33 33 33 31 30 35 34 34 33 35 36 37 39 45 44 42 40 37 36 40 39 37 37 37 36 36 34 36 34 34 33 34 34 31 36 36 37 37 43 38 43 53 57
31 31 31 31 32 33 32 32 32 32 33 35 36 39 43 42 40 36 35 36 38 38 37 37 38 36 36 37 34 34 30 31 31 34 34 34 35 37 36 37 40 44 50
31 32 32 32 32 33 33 33 33 34 35 34 34 36 38 41 40 37 36 36 35 36 33 34 36 35 33 37 35 34 31 28 33 32 34 35 34 35 36 37 37 40 47
32 34 34 35 34 34 34 33 31 30 30 31 31 33 36 39 39 39 38 37 37 38 37 38 37 37 36 33 35 37 36 36 30 28 32 32 34 32 34 33 35 37 42
33 33 36 37 36 36 37 36 34 32 32 32 33 32 32 35 38 39 39 39 40 39 35 30 28 26 29 28 28 29 28 29 32 28 24 22 26 29 32 34 34 33 33
34 35 37 38 37 38 38 38 37 36 35 34 34 34 33 36 38 39 38 35 32 31 30 30 31 30 30 30 30 29 29 27 26 27 26 25 24 25 26 28 28 27 29
Wind_Speed
5 4 8 13 18 16 15 13 10 6 12 10 9 12 11 11 13 11 12 13 17 15 13 20 16 14 15 12 8 5 5 7 9 7 9 11 10 7 10 10 6 8 16
10 9 11 13 14 15 15 14 14 10 11 7 7 10 11 10 10 9 9 13 14 14 11 9 5 11 15 19 13 5 3 2 4 5 4 6 9 8 7 7 5 10 13
12 8 10 12 13 12 15 14 13 15 13 7 4 8 8 10 9 8 9 12 11 11 7 9 5 12 8 8 16 14 8 9 3 4 5 4 5 9 8 7 8 13 14
10 11 9 11 14 13 15 13 13 14 12 9 7 8 8 8 7 5 8 6 3 1 7 7 8 10 11 10 11 17 13 14 10 8 4 5 8 9 10 7 6 16 14
11 8 9 12 14 14 13 12 12 11 9 9 8 8 7 6 4 4 5 3 2 3 7 7 8 11 12 10 9 13 1 17 17 11 9 8 9 8 10 11 10 12 13
9 7 10 12 14 13 12 11 9 8 9 9 11 11 7 5 3 2 3 2 3 2 9 7 10 12 9 8 11 17 19 10 15 12 9 8 11 15 18 16 15 14 14
12 9 9 12 12 12 11 9 8 8 9 9 11 10 10 8 7 5 4 1 2 0 2 2 2 8 5 5 5 7 7 4 12 14 8 9 12 10 19 18 18 17 15
16 12 10 11 12 12 11 11 9 9 10 10 10 11 10 11 11 9 10 8 6 3 3 1 2 9 7 5 5 8 12 10 10 9 3 9 15 13 18 19 18 18 17
13 12 8 7 9 10 9 9 8 7 9 10 11 11 12 12 12 10 9 8 8 10 9 6 4 3 4 7 5 7 8 7 6 9 10 11 17 20 23 19 18 16 17
15 14 12 8 6 5 6 6 6 5 6 8 10 13 12 13 12 11 9 7 7 8 8 8 8 9 5 4 4 2 4 6 7 8 9 10 22 17 20 16 16 17 18
11 12 16 13 11 8 6 7 8 10 7 7 8 11 11 10 9 9 10 8 7 8 10 11 11 9 8 6 6 5 4 5 8 7 8 13 17 13 12 14 15 19 20
15 14 13 11 9 11 10 10 9 10 9 7 7 9 8 9 8 10 11 9 5 4 5 6 6 5 5 3 4 6 4 5 7 7 9 14 11 15 14 12 15 17 18
13 9 8 8 5 3 9 13 8 8 8 5 5 6 7 7 7 6 6 5 4 2 1 1 2 3 4 4 4 5 6 9 10 11 10 15 15 9 10 14 15 17 18
14 12 8 7 5 6 4 6 6 5 5 6 6 6 5 5 6 5 6 5 4 3 1 4 6 6 7 8 8 9 10 11 11 9 10 14 16 14 16 16 15 17 17
14 12 10 9 6 5 6 6 6 7 8 8 9 7 7 8 7 7 6 5 5 4 3 2 3 5 6 7 8 9 11 12 13 11 10 16 17 16 14 17 19 20 20
19 18 15 13 10 8 5 4 5 5 5 5 5 6 5 6 5 8 6 6 5 5 4 3 2 4 5 8 8 7 9 8 10 11 12 13 19 22 21 19 19 22 23
19 19 18 15 12 11 9 7 6 6 5 6 6 6 6 5 4 6 6 6 6 3 4 3 1 2 4 6 8 9 6 5 9 11 12 13 14 17 22 22 19 20 21
15 19 16 12 13 10 11 9 7 8 7 8 8 8 7 6 6 6 7 8 6 6 6 4 2 1 3 4 5 9 10 10 11 11 14 12 12 12 14 19 22 22 23
16 17 13 10 13 11 9 8 7 8 9 11 10 10 10 9 7 6 7 8 8 7 7 7 3 2 1 4 7 8 8 9 11 11 14 14 12 13 13 15 19 24 26
15 14 12 10 11 10 7 5 3 5 10 8 12 13 13 12 12 10 9 10 8 7 8 6 5 4 4 4 5 8 8 9 8 11 11 11 13 13 15 11 13 13 23
16 15 14 13 12 9 6 6 7 10 10 10 13 19 17 16 16 15 13 13 11 10 12 11 5 6 5 1 5 6 7 11 7 15 7 11 13 14 13 18 15 12 9
16 14 14 15 13 13 11 8 8 8 11 12 12 16 19 20 20 18 17 16 15 12 11 11 9 5 4 3 2 3 7 10 7 7 14 12 13 11 15 16 15 16 12
11 13 14 15 15 16 17 11 8 4 6 9 13 13 20 23 22 22 21 18 17 16 17 12 9 7 6 2 2 1 5 7 19 9 10 14 12 13 13 13 16 14 14
12 10 11 13 14 15 14 16 18 21 21 20 21 18 16 21 24 22 21 19 15 12 7 6 5 5 2 1 4 2 4 5 13 23 7 10 14 14 16 17 17 15 13
8 9 14 14 13 14 12 15 18 22 22 21 18 19 18 17 21 21 17 12 12 13 11 10 7 5 3 2 3 4 9 10 10 13 26 20 19 14 13 15 15 17 18
3 3 4 6 11 11 13 16 18 22 24 21 22 22 20 12 8 11 16 17 15 12 12 11 10 6 4 6 9 10 10 10 14 12 18 21 21 19 16 14 17 19 19
Wind_Direction
144 145 88 71 77 76 62 60 66 89 98 96 96 91 94 98 111 120 135 130 124 120 121 127 134 122 118 111 83 40 53 98 115 127 154 157 155 151 138 155 149 144 130
130 113 100 83 78 80 81 73 70 84 87 95 114 114 115 111 106 105 71 49 62 76 73 73 116 127 129 111 93 66 17 72 123 147 170 158 153 167 162 173 166 171 145
114 96 90 102 98 92 86 76 70 66 72 81 126 118 127 126 120 108 87 84 73 51 55 86 114 86 91 86 112 96 13 317 277 185 181 210 197 179 176 201 195 175 160
105 103 91 97 91 87 86 88 81 78 80 90 102 121 123 134 139 115 91 66 37 360 106 116 118 121 107 117 91 66 26 327 277 269 235 228 233 196 190 182 160 166 177
100 92 109 106 102 102 95 88 83 81 83 80 103 127 122 142 144 151 165 154 186 166 135 115 143 134 145 167 128 81 21 259 270 249 250 243 259 246 212 189 171 175 181
115 134 117 105 100 96 97 93 97 99 96 89 84 99 109 110 109 49 333 149 102 159 185 174 133 141 159 187 160 179 204 227 285 255 250 252 262 258 197 192 182 177 183
150 151 138 126 118 113 116 122 118 104 89 80 80 77 81 92 71 52 31 315 204 167 45 297 136 132 153 191 224 221 272 250 260 266 265 274 279 239 199 197 188 178 182
155 163 154 147 140 146 150 144 141 133 121 106 98 92 90 83 80 80 73 79 106 93 113 88 123 160 217 211 238 271 267 263 288 276 300 294 277 264 214 198 194 188 189
152 148 165 171 170 162 160 158 151 141 127 121 120 113 114 110 106 104 99 95 100 89 87 91 148 204 212 213 238 270 289 319 310 306 320 297 288 289 219 206 196 190 191
151 162 171 168 188 176 162 172 160 150 132 131 134 136 134 126 127 121 112 107 96 93 91 97 99 116 93 62 63 21 333 328 327 330 314 301 297 285 212 204 205 202 193
145 173 178 179 187 187 186 186 180 164 167 154 158 149 138 135 131 124 116 107 91 76 58 54 53 50 54 55 358 321 292 301 309 318 328 328 300 256 228 209 210 211 205
154 164 154 149 173 194 203 185 195 177 174 173 159 166 166 156 153 142 136 131 108 63 49 42 28 23 38 27 7 353 331 308 300 304 309 319 307 273 263 234 224 217 211
169 151 150 136 135 141 186 181 198 189 178 197 179 164 164 138 161 150 154 146 133 134 112 337 352 358 331 325 297 289 306 314 311 308 303 316 323 322 299 281 255 234 221
174 165 154 125 102 60 132 160 196 175 167 142 123 108 134 152 157 178 179 158 168 200 285 321 335 343 343 335 325 316 311 299 294 298 300 295 299 305 299 285 282 266 249
171 171 156 138 133 107 115 127 131 134 146 151 145 131 153 177 177 174 182 163 160 148 131 88 332 312 313 306 303 304 300 298 295 294 302 299 297 290 286 290 284 278 269
177 175 165 161 157 143 157 150 135 153 147 141 143 125 114 156 178 186 179 170 154 144 136 94 55 13 346 342 340 329 307 299 292 301 297 293 294 295 285 276 275 276 275
176 170 173 170 167 164 168 179 183 199 178 175 169 147 141 163 149 165 161 163 157 150 132 98 47 21 356 348 340 338 338 330 321 312 300 289 283 286 291 280 273 268 275
161 170 174 173 173 170 175 187 208 214 211 203 199 185 178 171 171 165 170 164 168 164 167 154 148 350 347 348 334 331 322 324 326 329 325 300 280 279 282 271 265 267 271
165 164 167 168 177 180 187 207 214 225 216 221 217 206 202 197 188 183 193 193 181 175 188 184 198 201 263 321 326 328 326 319 321 326 334 338 323 313 315 304 281 267 263
150 154 160 166 178 187 188 182 213 227 226 224 225 222 212 205 200 187 195 205 197 192 205 203 217 215 231 275 302 309 302 299 307 316 320 332 332 331 326 334 314 277 255
145 156 172 178 193 180 191 207 223 230 232 236 229 222 218 214 210 198 197 204 204 197 206 208 210 227 259 217 317 310 287 288 284 303 298 314 324 325 325 324 315 313 288
167 180 184 198 201 208 211 214 206 214 233 237 237 221 223 221 215 209 205 204 201 202 195 193 196 191 233 228 246 293 320 303 274 298 301 292 302 309 320 316 318 313 288
192 206 212 217 214 219 224 228 234 249 265 254 250 239 228 219 217 213 213 206 199 196 200 203 193 188 226 210 137 223 316 288 317 300 296 288 293 309 307 316 318 311 301
232 243 243 244 235 235 234 236 237 239 244 244 240 230 232 215 217 217 215 212 206 195 189 153 117 111 104 318 339 134 268 275 309 308 287 301 291 296 305 303 299 310 313
209 225 239 242 251 251 243 240 245 247 247 250 250 242 236 226 218 213 204 187 166 145 130 117 91 59 62 300 287 303 312 303 278 282 297 303 299 289 287 297 300 306 308
210 252 279 294 282 298 295 281 263 260 259 257 257 249 241 222 198 177 151 136 124 118 97 72 51 25 330 331 339 332 302 292 291 285 290 294 289 296 287 278 291 287 286